GW0900 Weather Reports


Display with metric or nautical units.
time (UTC)temp
F
wind
direction
speed
MPH
gust
MPH
rain 1hr
in
rain 24hr
in
rain mn
in
humidity
%
barometer
mb
20260505163035 70 82 0.0 6.0 0.00 0.00 0.00 58 1014.4
20260505161535 70 255 1.0 4.0 0.00 0.00 0.00 57 1014.4
20260505153034 68 46 0.0 4.0 0.00 0.00 0.00 59 1014.2
20260505124535 60 80 0.0 4.0 0.00 0.00 0.00 76 1012.7
20260505123147 61 36 0.0 4.0 0.00 0.00 0.00 74 1012.6
20260505121611 61 9 0.0 5.0 0.00 0.00 0.00 73 1012.5
20260505120036 63 62 0.0 4.0 0.00 0.00 0.00 69 1012.3
20260505114535 64 322 0.0 4.0 0.00 0.00 0.00 66 1012.3
20260505113036 64 283 0.0 4.0 0.00 0.00 0.00 67 1012.1
20260505111536 64 312 0.0 4.0 0.00 0.00 0.00 67 1011.9
20260505101535 65 243 0.0 5.0 0.00 0.00 0.00 67 1011.5
20260505100107 65 302 0.0 5.0 0.00 0.00 0.00 67 1011.4
20260505094641 65 360 0.0 6.0 0.00 0.00 0.00 67 1011.3
20260505093045 64 304 0.0 7.0 0.00 0.00 0.00 71 1011.3
20260505090110 64 290 0.0 4.0 0.00 0.00 0.00 71 1011.0
20260505084536 65 27 0.0 4.0 0.00 0.00 0.00 70 1011.0
20260505083034 65 311 0.0 6.0 0.00 0.00 0.00 69 1011.0
20260505081536 65 19 0.0 5.0 0.00 0.00 0.00 70 1010.9
20260505080145 66 324 0.0 4.0 0.00 0.00 0.00 69 1010.9
20260505074606 66 287 0.0 5.0 0.00 0.00 0.00 68 1010.7
20260505073037 65 303 0.0 3.0 0.00 0.00 0.00 69 1010.7
20260505070036 64 343 0.0 3.0 0.00 0.00 0.00 72 1010.5
20260505064533 67 340 0.0 3.0 0.00 0.00 0.00 66 1010.4
20260505063030 69 299 0.0 3.0 0.00 0.00 0.00 59 1010.3
20260505061536 69 280 1.0 9.0 0.00 0.00 0.00 60 1010.2
20260505060035 71 281 1.0 6.0 0.00 0.00 0.00 56 1010.1
20260505054607 71 286 1.0 8.0 0.00 0.00 0.00 53 1010.0
20260505053033 72 286 1.0 8.0 0.00 0.00 0.00 51 1009.9
20260505051538 72 287 1.0 8.0 0.00 0.00 0.00 51 1009.8
20260505041536 73 239 0.0 5.0 0.00 0.00 0.00 48 1009.2
20260505040144 73 282 0.0 10.0 0.00 0.00 0.00 47 1008.9
20260505034533 74 288 0.0 6.0 0.00 0.00 0.00 48 1008.8
20260505033032 74 295 0.0 5.0 0.00 0.00 0.00 46 1008.5
20260505031608 75 281 1.0 8.0 0.00 0.00 0.00 46 1008.4
20260505030038 76 287 1.0 8.0 0.00 0.00 0.00 45 1008.2
20260505024605 77 269 2.0 12.0 0.00 0.00 0.00 44 1008.0
20260505023036 77 285 1.0 8.0 0.00 0.00 0.00 43 1007.9
20260505021642 78 281 1.0 5.0 0.00 0.00 0.00 43 1007.9
20260505014534 81 283 1.0 5.0 0.00 0.00 0.00 41 1007.8
20260505013036 82 282 1.0 5.0 0.00 0.00 0.00 39 1007.7
20260505011536 83 287 1.0 7.0 0.00 0.00 0.00 39 1007.7
20260505010035 84 281 0.0 4.0 0.00 0.00 0.00 39 1007.7
20260505004535 84 281 1.0 6.0 0.00 0.00 0.00 37 1007.6
20260505001534 84 296 1.0 11.0 0.00 0.00 0.00 37 1007.7
20260505000432 0 0 0.0 0.0 0.00 0.00 0.00 100